Home > Time Zones > World Clock > Weather > Iran > Tehran > Past weeks

Flag for Iran Weather past 2 weeks in Tehran, Iran

Now
57 °F

Clear.


Feels Like: 57 °F
Forecast: 48 / 76 °F
Wind: 5 mph from Northwest

Location: Tehran-Mehrabad

Current Time: Apr 27, 2015 at 3:14:48 AM

Latest Report: Apr 27, 2015 at 2:30 AM


Visibility: 10 mi

Pressure: 30.18 "Hg

Humidity: 18%

Dew point: 14 °F

Location of TehranLocation

Historic Weather in Tehran — Graph

°F

Tehran temperature yesterday

Maximum temperature yesterday: 68 °F (at 3:30 PM)
Minimum temperature yesterday: 45 °F (at 5:30 AM)
Average temperature yesterday: 58 °F

Past Weeks' High & Low Weather Summary

 TemperatureHumidityPressure
High86 °F (Apr 22, 6:00 PM)88% (Apr 12, 4:00 AM)30.27 "Hg (Apr 12, 4:00 AM)
Low45 °F (Apr 26, 5:30 AM)8% (Apr 22, 6:00 PM)29.77 "Hg (Apr 22, 5:00 PM)
Average66 °F24%30.00 "Hg
* Reported Apr 12 1:30 AM — Apr 27 2:00 AM, Tehran, Weather by CustomWeather, © 2015

Note: Actual official high and low records may vary slightly from our data, if they occured in-between our weather recording intervals... More about our weather records

Advertising

Tehran weather history for previous 24 hours

 ConditionsComfort  
Time TempWeatherWind HumidityBarometerVisibility
2:00 AM
Mon, Apr 27
59 °FClear.5 mph18%30.18 "Hg10 mi
1:30 AM57 °FClear.5 mph20%30.18 "Hg10 mi
1:00 AM59 °FClear.5 mph18%30.18 "Hg10 mi
12:30 AM61 °FClear.7 mph16%30.18 "Hg10 mi
12:00 AM63 °FClear.7 mph13%30.18 "Hg10 mi
11:30 PM
Sun, Apr 26
63 °FClear.7 mph14%30.21 "Hg10 mi
11:00 PM63 °FClear.7 mph14%30.21 "Hg10 mi
10:30 PM64 °FClear.5 mph13%30.21 "Hg10 mi
10:00 PM64 °FClear.5 mph12%30.18 "Hg10 mi
9:30 PM64 °FClear.7 mph12%30.18 "Hg10 mi
9:00 PM64 °FSunny.5 mph12%30.18 "Hg10 mi
8:30 PM64 °FSunny.5 mph12%30.18 "Hg10 mi
8:00 PM66 °FSunny.7 mph12%30.18 "Hg10 mi
7:30 PM66 °FSunny.12 mph11%30.18 "Hg10 mi
7:00 PM68 °FSunny.9 mph12%30.15 "Hg10 mi
6:30 PM68 °FSunny.9 mph12%30.15 "Hg10 mi
5:27 PM68 °FSunny.12 mph12%30.15 "Hg10 mi
5:00 PM68 °FSunny.12 mph13%30.18 "Hg10 mi
4:30 PM68 °FSunny.12 mph13%30.18 "Hg10 mi
4:00 PM68 °FSunny.7 mph13%30.18 "Hg10 mi
3:30 PM68 °FSunny.7 mph13%30.18 "Hg10 mi
3:00 PM66 °FSunny.7 mph15%30.21 "Hg10 mi
2:30 PM66 °FSunny.9 mph15%30.21 "Hg10 mi
1:50 PM64 °FSunny.12 mph16%30.24 "Hg10 mi
1:30 PM64 °FSunny.12 mph16%30.24 "Hg10 mi
1:00 PM64 °FSunny.12 mph18%30.24 "Hg10 mi
12:30 PM64 °FSunny.12 mph18%30.24 "Hg10 mi
11:50 AM61 °FSunny.12 mph20%30.27 "Hg10 mi
11:30 AM61 °FSunny.12 mph20%30.27 "Hg10 mi
11:00 AM61 °FSunny.14 mph17%30.27 "Hg10 mi
10:30 AM61 °FSunny.14 mph17%30.27 "Hg10 mi
9:50 AM57 °FSunny.12 mph21%30.27 "Hg10 mi
9:30 AM57 °FSunny.12 mph21%30.27 "Hg10 mi
9:00 AM57 °FThunderstorms. Passing clouds.N/A23%30.24 "HgN/A
8:30 AM55 °FSunny.5 mph28%30.24 "Hg10 mi
7:50 AM50 °FSunny.No wind43%30.21 "Hg10 mi
7:30 AM50 °FClear.No wind43%30.21 "Hg10 mi
7:00 AM46 °FClear.5 mph46%30.21 "Hg10 mi
6:30 AM45 °FClear.7 mph49%30.18 "Hg10 mi
6:00 AM45 °FClear.7 mph49%30.18 "Hg10 mi
5:30 AM45 °FClear.7 mph49%30.15 "Hg10 mi
5:00 AM46 °FClear.7 mph50%30.15 "Hg10 mi
4:30 AM46 °FClear.9 mph46%30.15 "Hg10 mi
4:00 AM46 °FClear.12 mph50%30.15 "Hg10 mi
3:30 AM46 °FClear.14 mph50%30.15 "Hg10 mi
3:00 AM46 °FClear.14 mph50%30.12 "Hg10 mi
Weather by CustomWeather, © 2015

See weather overviewHow to use our weather pages